Weather Roundup
Issued by NWS Corpus Christi, TX

Home | Current Version | Previous Version | Text Only | Print | Product List | Glossary Off
Versions: 1 2 3 4 5 6 7 8 9 10 11 12 13 14 15 16 17 18 19 20 21 22 23 24 25 26 27 28 29 30 31 32 33 34 35 36 37 38 39 40 41 42 43 44 45 46 47 48 49 50

000
ASUS44 KCRP 271510
HRRCRP

SOUTH TEXAS REGIONAL WEATHER ROUNDUP
NATIONAL WEATHER SERVICE CORPUS CHRISTI TX
1000 AM CDT FRI MAR 27 2015


TXZ229>244-271600-
...CORPUS CHRISTI AREA OBSERVATIONS...

CITY           SKY/WX    TMP DP  RH WIND       PRES   REMARKS
CORPUS CHRISTI MOSUNNY   59  47  64 NW6       30.23R
NAS CORPUS CHR MOSUNNY   61  46  57 W3        30.23R
ROCKPORT       SUNNY     62  44  51 NW7       30.22S
KINGSVILLE NAS MOSUNNY   63  47  55 NW3       30.24R
ALICE          SUNNY     62  44  51 W3        30.23S
FALFURRIAS     SUNNY     60  45  57 CALM      30.25R
$$

...VICTORIA AREA OBSERVATIONS...

CITY           SKY/WX    TMP DP  RH WIND       PRES   REMARKS
VICTORIA       SUNNY     60  46  59 NW5       30.22R
BEEVILLE       FAIR      60  46  58 NW5       30.23R
PLEASANTON     SUNNY     59  43  55 W3        30.23S
SAN ANTONIO    SUNNY     62  34  35 W7        30.22R
$$

...LAREDO AREA OBSERVATIONS...

CITY           SKY/WX    TMP DP  RH WIND       PRES   REMARKS
LAREDO         SUNNY     62  46  55 SW5       30.28R
COTULLA        SUNNY     60  43  53 W6        30.25R
DEL RIO        SUNNY     58  44  60 CALM      30.23S
MCALLEN        MOSUNNY   64  49  57 W5        30.27R
HEBBRONVILLE   NOT AVBL
$$

...OTHER TEXAS OBSERVATIONS...

CITY           SKY/WX    TMP DP  RH WIND       PRES   REMARKS
BROWNSVILLE    MOSUNNY   63  51  65 NW7       30.25R
HOUSTON        SUNNY     59  39  47 W5        30.18F
COL. STATION   SUNNY     57  41  55 VRB3      30.19S
AUSTIN         MOSUNNY   60  41  49 SW3       30.19S
WACO           SUNNY     57  40  52 SW7       30.17S
FORT WORTH     PTSUNNY   59  37  44 N10       30.15R
WICHITA FALLS  PTSUNNY   57  38  48 N14       30.19R
LUBBOCK        MOSUNNY   55  28  35 W9        30.21R
EL PASO        MOSUNNY   53  30  41 S6        30.28R
$$

...MARINE OBSERVATIONS...

STATION/POSITION TIME  SKY/WX   TEMP    WIND        PRES    VSBY  WAVE   SWELL
                                AIR SEA DIR/SP/G                  HT/PER HT/PER
                 (UTC)          (F)     (DEG/KT/KT) (MB)    (MI)  (FT/S) (FT/S)
PORT ARANSAS     1500            60 65  280/  4/  5 1023.9R
BUOY 90 E PORT A 1500            63 69  350/ 12/ 14 1022.2R         5/ 7   3/ 7
BUOY 45 SE BAFFI 1500            65 70  350/ 10/ 14 1022.5R         5/ 6   5/ 6
BUOY 200 E PT IS 1500            67 72  360/ 17/ 23 1020.0R         9/ 8
BUOY 15 E GALVES 1500            57 64  320/  6/  8 1021.2R         1/ 3
$$


USA.gov is the U.S. government's official web portal to all federal, state and local government web resources and services.